Regional Weather Roundup
Issued by NWS

Home | Current Version | Previous Version | Text Only | Print | Product List | Glossary Off
Versions: 1 2 3 4 5 6 7 8 9 10 11 12 13 14 15 16 17 18 19 20 21 22 23 24 25 26 27 28 29 30 31 32 33 34 35 36 37 38 39 40 41 42 43 44 45 46 47 48 49 50

000
ASUS43 KLOT 300300
RWRIL

ILLINOIS REGIONAL WEATHER ROUNDUP
NATIONAL WEATHER SERVICE CHICAGO/ROMEOVILLE IL
1000 PM CDT FRI AUG 29 2014

NOTE: "FAIR" INDICATES FEW OR NO CLOUDS BELOW 12,000 FEET WITH NO
SIGNIFICANT WEATHER AND/OR OBSTRUCTIONS TO VISIBILITY.

* THESE STATIONS ARE NOT UNDER NWS QUALITY CONTROL. THEY ALSO MAY NOT
  REPORT WEATHER SUCH AS PRECIPITATION OR FOG.

ILZ001-002-007-009-015-016-024-300400-
NORTHWEST ILLINOIS

CITY           SKY/WX    TMP DP  RH WIND       PRES   REMARKS
MOLINE         LGT RAIN  72  67  84 S12       29.83R
STERLING*      CLOUDY    73  68  83 CALM      29.84S
$$

ILZ003-004-008-010-011-017-018-300400-
NORTH CENTRAL ILLINOIS

CITY           SKY/WX    TMP DP  RH WIND       PRES   REMARKS
ROCKFORD       CLOUDY    71  66  84 SE9       29.86F
$$

ILZ005-006-012>014-019>023-300400-
NORTHEAST ILLINOIS

CITY           SKY/WX    TMP DP  RH WIND       PRES   REMARKS
CHICAGO-OHARE  MOCLDY    77  67  71 S15       29.89S
CHICAGO-MIDWAY MOCLDY    79  70  74 SE13      29.90R HX  82
AURORA         PTCLDY    74  69  85 SE8       29.88S
WAUKEGAN       PTCLDY    74  70  87 SE6       29.88S
DUPAGE AIRPORT PTCLDY    76  69  79 SE10      29.88S
WHEELING       MOCLDY    78  70  76 S12       29.90R HX  80
NORTHERLY ISL    N/A     76  68  76 S14         N/A
$$

LMZ740>746-300400-
SOUTHERN LAKE MICHIGAN

STATION/POSITION SKY/WX   TEMP    WIND        PRES    VSBY  WAVE
                          AIR SEA DIR/SP/G                  HT/PER
                          (F)     (DEG/KT/KT) (MB)    (MI)  (FT/S)
SOUTHERN BUOY              72 69  160/ 14/ 17 1012.0F         2/ 4
WAUKEGAN HARBOR            74     170/ 15/ 17   N/A
HARRISON CRIB              75     160/ 14/ 17   N/A
BURNHAM HARBOR             76     160/ 13/ 17   N/A
CALUMET HARBOR             76     150/  7/ 14 1011.9R
MICHIGAN CITY              76     120/ 11/ 16   N/A
MICHIGAN CITY 6N           74 72  170/ 16/ 19   N/A           1/ 2
ST. JOSEPH                 73 71  160/ 14/ 19   N/A           1/ 2
$$

ILZ025>027-034>036-040-047-049-050-058-095>099-300400-
WEST-CENTRAL ILLINOIS

CITY           SKY/WX    TMP DP  RH WIND       PRES   REMARKS
QUINCY         MOCLDY    72  70  93 S9        29.87R
MACOMB*        CLOUDY    69  69 100 SE7       29.88S
$$

ILZ028>032-037-038-041>044-048-051>054-059>061-300400-
CENTRAL ILLINOIS

CITY           SKY/WX    TMP DP  RH WIND       PRES   REMARKS
DECATUR        CLOUDY    78  69  73 S10       29.91S HX  80
PEORIA         LGT RAIN  72  68  87 SE6       29.89F
SPRINGFIELD    CLOUDY    73  71  93 SE5       29.88F
TAYLORVILLE    NOT AVBL
$$

ILZ033-039-045-046-055>057-062-063-300400-
EAST-CENTRAL ILLINOIS

CITY           SKY/WX    TMP DP  RH WIND       PRES   REMARKS
CHAMPAIGN      CLEAR     73  70  90 SE7       29.93S
MATTOON        CLEAR     74  68  81 SE7       29.92S
$$

ILZ079-100>102-300400-
SOUTHWEST ILLINOIS

CITY           SKY/WX    TMP DP  RH WIND       PRES   REMARKS
BELLEVILLE     CLOUDY    78  71  80 VRB5      29.91R
CAHOKIA*       CLOUDY    79  69  71 S7        29.91R HX  81
$$

ILZ064>066-069>071-074>076-080>082-084>086-088>090-092>094-300400-
SOUTH-CENTRAL ILLINOIS

CITY           SKY/WX    TMP DP  RH WIND       PRES   REMARKS
CARBONDALE     CLOUDY    77  68  73 SW8       29.96R
MT. VERNON     CLOUDY    79  66  65 S6        29.95S HX  81
$$

ILZ067-068-072-073-078-083-087-091-300400-
SOUTHEAST ILLINOIS

CITY           SKY/WX    TMP DP  RH WIND       PRES   REMARKS
LAWRENCEVILLE  CLEAR     75  71  87 S6        29.95S
ROBINSON*      CLEAR     76  73  89 S7        29.96R
$$

ABBREVIATIONS USED IN REMARKS
   TC - TEMPERATURE IN CELSIUS
  WCI - WIND CHILL INDEX
   HX - HEAT INDEX
  VSB - VISIBILITY
$$




USA.gov is the U.S. government's official web portal to all federal, state and local government web resources and services.